FENGYUN 1C DEB, 30314

Orbit data source: Space-Track

FENGYUN 1C DEB, 30314 is space debris in SSO originally from a launch on Mon, 10 May 1999 UTC launched from the Taiyaun Space Center, China (TSC). Fengyun 1C debris stems from the Chinese weather satellite Fengyun-1C, which was intentionally destroyed by a Chinese anti-satellite missile in 2007. This event dramatically increased the amount of space debris, with thousands of trackable fragments posing hazards to satellites and human spaceflight. The Fengyun 1C debris cloud has become a focal point in discussions about space sustainability and the need for international regulations to prevent the creation of new debris.

Loading next visibility...
Identifier
30314, 1999-025AAB
Orbit
SSO
Country
Flag of CNCN / PRC
Related business
Manufacturer
Unknown
Mission
Spacecraft
Bus & Motor
Unknown
Mass
Unknown
Launch date (UTC)
1999-05-10 (26 years ago)
Launch vehicle
Unknown
Launch site
Taiyaun Space Center, China (TSC)
Object type
Payload
Rocket body
Debris
Shape & HBR
Unknown shape, 0.1 m
Radar Cross Section
Small (<0.1 m²)

Expand to show TLE details & history
Last TLE update: 16 hours ago

TLE from 16 hours ago
0 FENGYUN 1C DEB
1 30314U 99025AAB 25288.98516506  .00002870  00000-0  17784-2 0  9997
2 30314  98.3825 124.5459 0143501 160.3170 200.3614 14.00892469953006
Epoch: 2025-10-15T23:38Z
TLE epoch observation values (Epoch: 2025-10-15T23:38:38.261Z)
Latitude
-0.00008°
Longitude
105.1351°
Altitude
991.594 km
Speed
7.306 km/s
True Right ascension
08h 18m 11s
True Declination
0° 00' 00"
Sunlit
Object was in daylight at epoch
Visualization orbit readout
Latitude
Unknown
Longitude
Unknown
Altitude
Unknown
Speed
Unknown
Apparent Right ascension
Unknown
Apparent Declination
Unknown
Sunlit
N/A
Visualization observer readout
Local Sidereal Time
10:38:23
Azimuth
Unknown
Elevation
Unknown
Doppler factor
Unknown
Orbital elements
Apogee altitude
992.142 km
Perigee altitude
783.606 km
Semi-major axis
7,266.011 km
Eccentricity
0.01435
Inclination
98.3825°
RAAN
124.5459°
Arg. of periapsis
160.317°
True anomaly
199.79872°
Mean anomaly
200.3614°
Eccentric anomaly
200.07912°
Mean motion
3.50428 °/min
Orbital period
102.73 mins
BSTAR
0.0017784
Loading maneuver chart data...
Computing Atmospheric mass density...

Documentation

Showing up to 5 results
|